User: anonymous   Login
Location: North Mitre
(40.7833°S, 175.4667°E)
Time: 09:58:16
(UTC+00:00)
Language:

CZ-4 R/B - Orbit

View from above orbital plane
View from above orbital plane
View from above satellite
View from above satellite

Ground track
Ground track

The orbit data is extracted from the following two-line orbital elements,

1 29507U 06046C   24276.35355781  .00013459  00000-0  83140-3 0  9998
2 29507  97.6331 311.8431 0036918 270.9735  88.7264 15.09424591980872
Epoch (UTC): 02 October 2024 08:29:07
Eccentricity: 0.0036918
inclination: 97.6331°
perigee height: 512 km
apogee height: 563 km
right ascension of ascending node: 311.8431°
argument of perigee: 270.9735°
revolutions per day: 15.09424591
mean anomaly at epoch: 88.7264°
orbit number at epoch: 98087

The dashed part of the orbit path shows where the satellite is in the earth's shadow,  

DLR